STARLINK-32161

Last updated on Fri Sep 20 2024 00:02:03 GMT+0000 (Coordinated Universal Time)

1 60593U 24150L 24263.58334491 .00024050 00000+0 60989-3 0 9994 2 60593 53.1581 279.3571 0001340 73.0038 173.6818 15.39592522 5968
UTC large
Height (km)
Speed (km/s)
/
Latitude / Longitude
Inclination (degrees)
Orbital Period (minutes)
Azimuth
Elevation
Range (km)
Doppler Factor

Next 0 passes for location: London (51.5072 / 0.1276)

Sorry there are no passes over London.